Find STARLINK-37936

NORAD ID: 799500993 Int'l Des: 2026-135T Constellation: starlink operational

当前视图

正在加载3D地球...

About STARLINK-37936

STARLINK-37936 (NORAD 799500993) is a starlink constellation satellite launched Jun 8, 2026

关于 STARLINK-37936

正在加载描述...

即将过境

Passes for default location (London). Set your location on the main map for personalized predictions.

高度历史

Loading altitude history...

两行轨道根数

1 99999C 2026135T 26167.09493056 .00187600 00000-0 291900-4 0 1676
2 99999 97.2791 193.9021 0010682 263.3419 276.3916 16.03895676 18
Epoch: Jun 16, 2026 • Age: 5 hours